Theta_e
292 283 280 281 282 283 288 287 287 288 288 287 284 282 283 281 283 286 287 290 289 286 284 286 286 286 288 290 291 293 293 292 291 291 291 291 291 291 292 293 293 292 293 296 296 297 299 299 297 297 297 296 296 295 296 296 295 294 293 291 291 290 290 288 287 286 284 283 282 281 281 282 282 283 283 283 283 282 282 283 283 283 282 283 283 282
292 283 280 282 286 287 288 288 288 287 288 287 282 279 281 280 281 286 287 291 290 286 281 284 285 286 288 290 291 293 291 290 291 290 290 291 291 292 293 293 294 294 296 297 298 298 297 297 297 296 296 296 296 295 294 295 295 294 292 291 291 290 289 289 288 287 286 285 284 283 282 282 282 282 283 282 283 283 283 283 283 283 282 282 282 283
282 282 286 289 289 289 289 289 289 287 285 282 283 280 279 282 282 285 288 289 290 287 284 285 284 286 288 289 291 291 290 290 290 290 291 292 293 293 293 293 294 294 295 296 298 298 298 297 297 296 296 296 295 295 294 294 293 293 292 291 291 291 290 289 289 287 286 285 285 284 283 283 281 282 283 283 283 284 283 282 283 283 282 282 281 282
282 283 289 290 289 288 287 289 287 286 283 283 281 280 280 281 281 279 283 285 288 285 284 285 282 285 286 287 288 289 290 291 291 293 293 293 292 291 291 292 293 292 293 293 294 296 296 296 296 295 295 294 294 293 293 294 293 293 293 292 290 290 290 289 289 289 287 286 285 284 283 283 282 281 283 283 282 282 282 282 282 282 282 281 281 281
286 288 289 289 287 288 286 286 285 281 282 281 282 279 280 280 281 281 282 284 284 282 284 283 283 280 280 285 287 289 289 290 290 292 292 292 291 290 292 292 292 292 292 293 293 293 294 296 296 296 296 294 294 294 295 295 295 295 294 293 291 290 290 290 290 289 286 286 284 284 284 283 282 282 281 280 280 281 282 282 281 281 282 281 281 280
287 289 291 288 289 287 286 285 284 284 281 280 279 283 283 282 281 282 282 282 280 278 283 283 275 274 278 284 285 286 288 288 288 289 288 289 289 290 290 290 291 292 291 292 293 293 293 294 294 294 294 295 295 295 296 296 295 294 294 293 292 290 289 289 289 288 286 286 284 283 282 280 280 280 279 279 279 280 280 281 282 282 282 281 281 280
288 289 289 287 286 285 283 283 286 284 279 277 281 283 282 281 280 280 280 280 275 275 281 284 275 273 279 283 284 283 285 286 288 287 287 288 289 289 289 290 290 291 292 292 291 292 292 294 293 294 293 294 295 296 297 295 295 294 294 293 292 291 290 289 288 288 287 285 285 284 283 283 281 281 281 281 280 280 280 281 280 281 281 281 281 280
290 289 286 286 287 283 282 282 285 285 279 278 280 282 281 282 281 280 279 277 278 279 283 282 278 273 273 282 282 281 283 284 285 286 287 287 288 289 289 290 290 290 290 291 292 292 292 293 292 294 294 294 295 296 294 294 295 294 294 293 292 292 291 289 288 287 288 286 285 284 284 284 282 281 281 281 280 280 281 279 280 280 280 281 281 280
288 285 284 284 281 281 283 285 286 284 282 282 281 284 284 283 282 281 279 277 277 276 275 279 281 277 272 279 283 280 283 282 282 283 286 287 288 289 290 291 290 290 290 291 291 292 292 293 293 294 295 295 294 296 296 295 295 295 293 292 291 291 290 290 288 287 287 287 285 284 284 283 284 283 282 282 282 281 281 279 279 279 280 280 280 280
287 287 287 287 283 282 285 284 283 285 282 281 283 284 284 283 281 281 278 277 274 273 270 277 280 274 274 279 280 278 279 280 281 283 285 287 288 288 289 290 291 290 290 291 291 290 292 293 293 293 294 294 294 295 296 296 293 292 291 291 290 290 290 290 288 287 286 286 286 284 283 283 283 283 283 282 281 281 280 279 279 279 279 279 279 279
288 291 290 287 285 288 284 285 284 285 286 285 284 283 282 278 279 279 278 276 272 267 271 276 277 278 272 277 278 281 279 282 281 282 284 285 286 287 287 289 290 291 291 290 289 290 291 292 292 292 293 293 293 294 295 295 293 292 291 290 290 291 290 289 288 287 286 286 286 285 284 283 283 283 282 281 280 280 279 278 278 278 278 278 278 278
286 285 286 287 290 288 288 285 285 285 286 284 281 280 277 275 275 275 273 272 267 267 272 275 277 278 270 274 278 282 280 278 281 284 284 285 285 287 287 289 289 289 289 289 289 290 291 291 292 291 292 292 292 293 295 295 294 291 291 289 290 290 290 289 289 287 286 286 286 286 285 284 284 283 283 282 281 280 279 279 278 278 277 277 278 278
282 284 286 288 288 287 282 281 280 282 284 283 280 281 276 269 269 266 269 268 268 268 276 274 277 276 274 276 283 282 281 284 282 285 286 286 285 286 287 289 288 288 287 289 289 290 291 290 290 291 291 291 291 292 293 294 294 292 291 290 290 291 291 291 289 287 287 286 286 286 285 285 285 284 283 283 282 282 280 280 279 278 277 277 277 277
277 280 284 285 286 288 286 281 279 277 278 281 278 274 268 266 263 262 262 267 266 274 276 277 277 275 276 278 281 281 284 285 285 283 283 285 287 287 288 287 287 288 289 289 289 289 289 289 290 291 291 291 291 291 291 291 292 293 292 291 289 291 292 291 289 288 287 286 287 286 286 286 285 284 284 283 283 283 282 281 280 279 278 278 277 277
271 272 277 282 280 284 285 284 284 280 280 278 281 279 273 269 267 264 265 265 268 271 278 279 271 267 273 278 284 284 286 286 285 284 283 284 284 285 286 286 286 288 288 288 289 289 289 290 289 290 290 290 290 290 291 291 291 291 291 290 290 290 291 291 290 287 286 286 286 286 286 286 285 285 284 283 283 283 282 281 280 280 279 278 278 278
278 276 280 285 285 285 284 286 284 282 278 280 280 278 275 273 273 269 266 269 265 270 272 272 274 274 279 284 287 284 284 284 285 286 283 285 285 284 286 287 287 288 289 289 288 289 289 288 288 289 289 289 289 289 290 290 290 290 291 290 290 290 291 290 290 288 287 286 286 286 286 286 285 285 284 284 284 283 283 281 280 280 279 279 278 278
274 273 279 284 285 284 285 285 283 284 273 278 278 274 279 277 278 270 274 275 274 268 269 271 275 277 281 284 280 283 284 285 284 284 282 284 284 284 285 286 286 288 288 287 288 287 288 287 287 288 287 288 288 288 289 289 289 289 290 290 290 290 290 290 290 289 288 286 285 285 285 285 285 284 284 283 283 283 282 282 281 280 279 279 278 278
273 277 281 282 282 283 283 283 285 284 283 277 272 278 282 281 276 273 268 266 264 265 269 271 271 274 273 274 281 283 282 284 284 282 282 283 283 285 285 286 287 287 287 287 287 287 287 287 287 287 288 287 287 287 288 288 289 289 289 289 289 290 290 290 289 289 288 286 285 285 284 284 284 284 284 284 283 283 282 281 281 280 279 279 279 278
280 271 276 280 281 283 283 284 281 285 285 283 280 282 277 269 267 271 269 263 263 262 266 273 270 273 273 275 277 280 279 283 285 283 281 283 283 284 284 286 286 287 287 287 287 288 288 287 287 286 287 287 287 287 288 288 288 288 288 288 288 289 289 289 289 289 288 286 286 285 285 284 284 284 284 284 283 282 281 281 280 280 279 279 278 278
280 272 276 279 282 282 283 280 275 275 279 284 284 281 280 276 270 269 270 266 267 264 263 267 271 272 273 272 276 280 282 284 283 282 282 282 283 284 285 286 287 287 287 287 287 288 288 287 286 286 286 287 287 287 288 287 287 287 287 287 288 288 288 288 288 288 287 286 285 285 284 283 283 283 283 283 282 281 281 281 280 280 279 279 278 278
277 278 270 277 279 278 276 279 277 279 275 274 275 273 277 275 277 274 271 270 269 263 263 262 267 272 278 279 280 282 284 284 282 283 283 283 283 284 285 286 287 287 287 287 287 288 287 286 286 286 285 286 286 286 287 287 287 287 286 286 286 286 287 287 288 286 286 285 284 283 283 283 282 282 283 283 282 281 281 281 281 280 280 279 278 278
273 275 271 275 277 275 278 278 280 279 278 277 275 272 277 273 274 268 270 270 270 269 265 265 268 275 281 286 284 284 285 283 284 283 285 286 285 284 285 286 286 287 287 287 288 288 287 285 285 285 286 286 286 287 287 287 287 287 287 287 286 286 287 287 288 287 287 285 284 283 283 282 282 282 282 282 282 281 281 281 280 280 279 278 278 277
279 277 274 272 274 278 281 281 280 281 280 279 279 277 275 272 270 268 266 267 267 269 269 270 266 273 284 284 284 284 283 284 285 284 285 286 285 284 286 286 286 286 286 288 288 288 286 285 285 285 286 285 286 286 286 287 287 287 286 286 286 285 287 287 287 286 286 285 284 283 283 282 282 282 281 281 281 281 281 281 280 280 279 278 278 277
286 272 269 275 277 278 279 277 279 278 281 280 278 277 277 274 273 273 272 270 271 269 268 266 266 273 282 282 282 282 284 285 285 284 284 286 285 285 286 287 286 287 288 288 288 286 286 285 285 287 287 287 287 286 286 286 286 286 286 286 285 286 286 286 286 286 285 285 284 284 282 282 282 282 281 280 281 281 281 281 280 280 279 278 278 277
273 275 274 267 268 275 277 275 277 278 280 279 277 276 276 275 273 269 272 268 270 270 273 266 266 272 281 280 284 285 285 285 286 287 286 285 285 286 287 287 287 287 287 286 286 285 285 286 286 286 286 286 286 286 287 287 287 286 286 286 286 286 286 286 286 285 285 284 284 283 282 281 281 281 281 281 281 281 281 281 280 280 279 278 277 277
275 274 272 268 267 266 266 267 270 275 277 279 280 279 277 275 275 273 270 268 268 269 271 265 267 278 283 285 285 285 285 285 287 287 286 283 285 286 286 286 286 286 285 285 285 285 285 285 286 286 286 286 286 286 286 286 286 286 286 287 286 286 286 286 285 284 284 284 283 283 282 282 281 281 281 281 281 281 280 280 279 279 279 278 277 277
273 276 276 270 268 269 274 275 279 280 278 275 278 279 279 275 275 274 272 268 271 272 269 274 276 277 279 281 282 283 284 284 286 286 285 285 286 285 285 285 285 285 285 285 285 285 285 285 285 285 285 286 286 286 286 286 286 286 286 286 287 287 286 286 285 284 283 283 282 282 282 282 281 281 281 281 281 280 280 279 279 278 278 278 277 276
272 270 274 277 275 277 279 279 280 280 277 279 277 277 280 277 273 272 272 274 275 269 271 278 278 276 278 281 283 283 284 285 285 285 285 285 284 284 284 284 285 284 284 284 284 284 284 284 285 285 286 286 287 287 287 287 286 286 286 286 286 287 287 287 285 284 284 283 282 282 282 282 282 281 281 281 281 280 280 279 278 278 278 277 277 276
271 271 270 272 271 277 279 279 280 279 278 278 278 278 278 279 277 272 274 278 278 273 273 278 279 277 280 281 282 282 281 282 283 284 285 284 284 283 283 282 282 283 283 283 283 284 284 284 284 285 285 286 286 286 286 286 285 285 286 286 286 286 286 287 285 285 284 283 282 282 282 282 281 281 281 281 280 280 279 279 278 278 278 277 277 277
272 268 269 270 274 277 278 278 279 277 277 277 278 279 279 278 278 277 277 279 278 276 279 279 279 279 280 279 281 281 283 282 283 285 284 283 282 282 282 281 282 282 282 282 282 283 283 283 284 284 284 284 284 284 284 284 284 285 285 285 286 286 287 287 285 285 284 283 283 282 282 281 281 281 280 280 280 279 279 278 277 277 277 277 277 276
275 271 277 272 271 276 278 277 275 277 276 277 279 279 279 278 277 278 276 277 277 277 278 278 277 277 280 282 281 283 282 282 282 282 283 283 282 282 281 281 281 281 282 282 282 282 282 283 283 283 283 283 283 284 284 284 284 285 285 286 286 287 287 287 286 286 285 285 284 283 282 281 281 280 280 280 280 279 279 278 277 277 276 276 276 276
272 270 270 269 272 274 277 276 276 278 277 277 276 276 277 277 276 278 276 277 275 274 276 276 275 275 279 282 281 281 280 280 279 280 282 283 283 282 281 281 281 281 281 282 282 282 282 282 282 282 283 283 283 283 284 284 284 285 285 286 286 287 287 287 287 286 286 286 285 284 282 282 281 280 280 279 279 279 278 278 277 276 276 276 275 275
270 270 271 269 272 273 278 277 277 277 274 269 269 277 279 279 279 279 279 278 277 277 274 272 273 279 280 280 279 279 279 279 280 280 281 283 283 282 281 281 281 281 282 282 282 282 282 282 283 283 283 283 284 284 284 284 284 284 285 285 286 287 286 286 286 286 286 286 286 285 284 283 282 281 280 279 279 279 278 277 277 276 276 275 275 275
269 271 270 271 269 271 277 277 278 273 269 268 278 281 281 278 279 277 277 276 277 278 276 278 278 279 280 278 279 278 278 279 280 281 283 283 282 281 281 281 281 282 282 282 282 282 283 283 283 283 284 284 284 284 285 285 284 285 285 286 286 286 286 286 286 286 286 286 286 285 284 284 283 282 281 280 279 278 277 277 277 277 276 276 275 274
271 271 270 268 270 271 274 274 272 268 266 274 282 282 282 281 280 279 277 276 277 277 278 277 278 278 279 279 279 280 280 281 281 281 282 283 282 281 281 281 281 281 281 282 282 282 282 282 282 283 283 283 284 284 284 284 285 285 285 285 285 285 285 286 286 286 286 286 286 285 284 284 283 283 282 281 280 279 278 277 277 276 276 275 274 274
269 271 270 271 269 270 270 267 265 269 278 280 281 281 282 281 279 279 278 277 277 278 278 276 279 279 280 279 280 281 280 280 281 281 282 282 283 281 280 280 281 281 281 281 281 281 282 282 282 282 282 284 284 284 284 284 285 284 284 285 285 285 285 285 285 285 286 286 286 286 286 285 284 283 282 281 280 279 278 278 277 276 275 275 274 274
276 272 271 271 269 268 267 268 272 278 277 277 276 279 279 275 275 275 272 276 277 279 279 278 278 279 279 279 279 279 280 279 278 279 282 281 281 281 281 281 281 281 281 282 282 282 282 283 282 283 283 283 283 283 283 284 284 284 284 284 284 285 285 284 284 284 285 285 286 286 287 286 285 284 283 281 280 279 278 278 277 276 275 274 273 273
278 273 272 270 270 269 268 267 269 267 268 270 277 279 280 279 279 280 276 274 279 279 280 278 277 278 278 279 279 279 279 275 273 275 279 280 281 281 281 282 282 281 281 282 282 282 282 283 283 283 283 282 283 283 284 284 284 283 283 283 283 284 284 284 284 284 285 285 285 286 286 286 285 284 283 281 280 279 279 278 277 276 275 274 273 272
277 277 272 270 270 268 269 267 266 265 268 274 275 277 279 280 280 280 275 273 278 279 279 279 277 278 279 278 278 278 275 270 271 275 279 280 280 281 280 280 281 281 281 281 281 281 282 282 282 282 283 282 282 283 283 283 283 282 282 283 283 283 283 283 284 284 284 285 286 286 286 286 286 284 282 282 282 281 280 279 277 276 275 274 274 273
273 271 272 271 266 269 266 265 267 266 265 273 277 278 279 280 281 277 267 268 277 279 280 279 278 278 279 279 278 276 274 270 272 275 279 280 280 280 280 280 280 280 281 282 282 282 282 283 282 282 282 282 282 283 283 283 283 282 282 283 283 282 282 283 284 284 285 285 286 286 286 286 285 284 283 282 282 281 281 279 277 275 274 274 273 273
270 270 271 271 269 272 273 268 268 271 275 276 277 279 279 281 279 268 264 270 278 279 280 279 279 279 279 278 278 274 276 277 278 279 280 280 279 279 280 281 281 281 281 281 282 283 282 282 282 282 282 282 283 283 283 283 282 282 282 282 282 282 283 283 284 284 285 285 285 285 286 286 286 285 283 282 281 282 281 278 277 275 274 273 273 272
272 270 269 270 268 270 269 268 271 268 274 278 279 280 280 276 267 265 274 280 279 279 280 280 279 279 279 278 277 277 278 279 279 279 279 279 279 279 280 280 281 281 282 282 282 282 282 282 282 282 282 283 283 283 283 282 282 282 282 282 282 283 284 284 284 284 284 284 285 285 285 285 285 285 284 283 282 280 279 277 276 275 274 273 272 271
274 271 270 269 269 270 269 271 271 267 273 280 279 278 280 271 272 278 279 279 280 279 279 279 279 279 279 277 278 278 278 278 278 278 279 279 279 279 279 280 280 280 280 280 281 281 281 281 281 281 281 282 283 283 282 282 281 281 282 281 282 283 284 284 284 284 284 284 285 285 285 285 285 285 285 283 280 279 279 276 274 274 273 272 271 270
274 270 267 269 273 271 271 268 267 275 278 280 279 273 276 278 280 280 279 277 279 280 279 278 278 279 278 277 277 277 278 278 278 279 279 279 280 280 280 280 280 280 280 281 281 281 281 281 281 281 281 282 282 282 282 282 281 281 281 281 283 283 284 284 282 284 284 284 285 285 285 285 285 285 285 285 283 279 278 275 274 273 272 271 271 270
277 273 275 272 272 271 269 273 279 280 279 281 280 279 279 280 280 280 279 278 278 278 279 278 278 278 278 278 278 278 277 278 278 278 278 279 279 279 279 279 280 279 280 280 280 281 281 281 280 281 281 281 281 282 282 282 281 281 281 282 283 283 284 283 283 283 283 284 284 285 285 285 285 285 285 285 283 279 276 274 273 272 271 270 270 270
278 279 278 276 272 277 279 279 280 279 279 279 281 281 280 280 281 281 279 278 278 279 279 278 278 278 278 278 277 278 278 278 278 278 279 279 279 279 280 280 280 280 280 280 280 281 281 281 281 280 280 280 280 281 281 282 282 281 281 283 283 283 284 284 283 283 283 284 284 285 285 285 285 285 285 285 281 279 277 275 272 271 270 270 270 269
278 278 277 270 275 273 269 278 278 278 279 279 280 281 282 282 281 280 279 278 279 279 279 279 278 278 278 278 277 277 277 278 278 279 279 279 279 279 279 279 280 280 280 280 281 281 281 280 280 280 279 277 279 280 281 281 282 282 282 282 283 283 284 283 283 283 283 283 284 285 285 285 285 284 284 283 278 276 275 274 272 271 270 269 269 269
273 280 275 275 274 273 273 277 278 280 280 281 281 279 279 279 280 279 280 279 279 279 279 279 279 278 279 278 278 278 278 278 278 278 279 279 279 279 279 280 280 280 281 281 281 281 280 280 280 280 280 279 278 280 281 281 282 282 282 283 283 284 284 283 283 283 282 283 284 284 285 284 281 282 283 281 277 274 273 272 272 271 270 269 269 268
277 279 272 276 274 275 278 279 279 279 280 280 280 280 280 279 279 278 279 279 279 278 278 279 279 278 278 278 278 278 278 278 279 279 279 279 279 279 280 280 280 280 281 281 281 281 280 280 280 280 280 279 279 280 281 281 282 282 282 283 283 284 283 283 283 283 282 282 284 284 284 284 284 284 283 278 274 274 274 272 271 271 271 271 271 270
277 274 277 276 271 271 273 275 277 272 271 276 278 279 278 279 278 278 278 278 278 277 278 277 278 279 279 279 279 279 278 278 279 279 279 279 279 279 280 280 280 280 281 281 281 281 280 280 280 280 280 281 281 281 281 281 281 282 283 283 283 283 283 283 283 282 282 283 284 284 284 284 284 283 280 276 273 272 271 272 274 272 271 270 272 274
276 276 276 272 272 271 276 278 278 278 277 277 278 278 278 279 278 277 277 277 278 278 278 278 277 277 278 279 280 279 279 279 279 279 279 279 279 280 280 280 280 280 280 281 280 280 280 280 280 280 280 281 280 280 281 281 281 282 283 283 283 283 283 283 282 282 282 283 283 283 283 283 283 283 277 273 272 271 270 270 271 275 275 273 273 274
Wind_Speed
1 5 2 1 3 3 2 1 2 2 2 3 2 1 8 6 8 6 6 3 2 2 6 9 7 10 19 18 20 20 13 9 7 8 7 5 4 4 6 7 7 7 8 9 5 3 1 1 3 2 3 4 4 4 6 7 8 9 11 9 12 9 9 9 9 9 9 10 7 6 10 11 9 9 8 8 7 7 7 8 8 8 7 8 8 8
3 4 2 3 1 2 2 2 1 3 1 2 4 4 8 4 8 5 4 2 3 4 6 6 10 14 17 17 17 17 11 8 7 7 7 7 7 6 9 10 8 5 9 12 12 12 9 8 6 5 3 2 4 2 4 8 9 7 6 10 10 7 9 11 12 11 10 11 12 11 11 9 8 8 9 9 8 9 8 8 8 8 7 9 9 8
5 3 1 1 2 2 3 3 2 1 4 3 1 4 5 8 5 9 2 2 2 8 12 7 12 15 19 15 15 12 6 5 5 4 2 9 12 12 12 12 11 10 10 11 9 6 5 4 3 1 0 1 2 4 6 6 5 6 7 8 7 9 10 10 10 9 11 9 7 8 6 9 6 7 7 8 8 8 8 8 9 8 8 9 8 8
5 3 2 2 3 4 3 1 3 4 2 3 6 6 7 5 7 8 4 6 12 1 8 10 9 14 9 8 5 4 6 4 8 14 13 9 10 10 7 6 8 8 9 8 7 6 3 1 0 1 3 4 3 4 4 5 6 5 7 7 8 9 9 9 10 10 8 7 5 5 4 5 7 7 7 7 7 8 9 10 9 8 9 9 9 8
1 1 1 3 3 2 4 5 4 5 8 4 2 3 5 5 3 2 9 10 5 6 1 6 10 8 6 12 10 8 8 12 10 13 11 8 5 5 7 8 6 6 6 6 6 5 4 2 3 5 6 4 5 6 7 7 7 7 9 9 9 9 10 9 9 9 6 5 5 4 2 3 4 1 6 6 8 9 9 9 8 10 10 10 9 9
3 1 0 4 3 3 4 7 4 3 7 8 4 1 2 3 6 6 6 11 9 5 2 11 7 4 6 11 5 5 8 12 7 9 5 5 6 8 8 6 6 6 4 5 5 4 4 5 6 5 5 6 7 8 10 8 8 6 8 8 7 6 7 9 8 8 8 8 9 7 7 8 7 8 7 12 13 11 11 13 10 9 10 10 9 9
1 2 2 1 3 5 5 2 1 3 5 5 6 1 4 5 4 5 7 6 6 5 8 4 4 6 7 8 5 4 7 7 6 6 4 4 4 5 5 5 5 5 6 6 5 5 6 8 6 7 6 6 8 10 8 5 7 8 8 8 7 8 7 7 7 8 8 8 9 12 12 11 12 12 10 7 6 9 8 7 9 10 10 10 11 10
2 3 5 4 4 5 5 8 3 3 3 5 2 1 4 8 8 5 1 2 5 2 8 2 5 3 7 9 3 3 5 6 6 6 4 3 2 3 3 4 5 4 5 4 5 6 6 7 6 8 8 6 6 6 4 5 6 8 10 8 8 7 7 7 7 9 11 11 10 11 11 11 11 12 11 9 8 6 6 7 9 8 9 10 10 10
4 4 4 6 4 5 5 2 4 1 0 6 4 0 9 8 7 2 2 3 3 1 6 7 1 1 4 9 7 4 5 5 4 4 3 3 3 3 4 4 4 4 4 3 5 7 7 9 9 9 11 8 7 8 8 6 7 7 6 6 5 7 8 7 8 10 11 11 11 12 11 11 10 9 7 5 5 7 7 8 8 9 9 9 10 10
2 1 1 1 3 5 4 4 3 2 3 5 5 6 7 1 2 3 2 1 2 2 4 5 1 1 8 6 7 4 3 2 1 3 4 3 3 4 2 3 4 5 5 3 4 5 8 9 9 9 9 7 7 7 8 7 4 4 3 5 5 7 7 8 8 10 11 11 10 10 11 13 11 8 6 5 8 8 7 9 9 9 9 9 9 9
1 3 5 3 1 1 3 5 2 2 5 5 6 4 7 5 2 1 1 1 1 2 4 5 3 2 4 7 1 3 0 2 3 5 4 4 3 3 3 2 4 3 4 5 5 5 6 7 7 7 9 7 8 8 9 8 5 2 3 4 5 8 6 5 8 9 11 11 10 11 12 13 12 10 9 8 9 8 8 9 9 9 9 8 9 8
2 2 1 1 2 3 1 5 2 1 0 4 4 5 6 3 5 1 4 3 3 6 5 4 1 0 2 7 6 4 4 4 5 0 2 4 2 3 3 3 3 5 6 6 6 8 8 7 7 6 8 8 8 9 13 10 7 5 4 4 5 5 6 6 7 7 9 10 11 11 12 13 13 11 10 12 12 11 12 11 10 8 7 8 8 9
4 2 2 5 2 3 2 3 6 4 4 9 5 7 9 6 7 7 7 9 2 3 8 1 3 6 4 8 8 10 5 7 8 2 2 3 3 3 2 2 3 3 6 5 6 6 6 6 7 7 7 6 7 7 9 10 8 6 5 5 5 7 6 8 7 8 10 10 11 12 13 12 11 11 12 12 12 11 11 10 10 9 10 8 8 10
7 4 5 3 3 0 1 8 8 7 6 8 5 2 5 5 4 3 5 2 3 10 5 4 1 3 5 7 6 6 7 10 8 6 4 3 1 0 2 5 5 6 6 6 5 5 5 6 6 8 8 7 8 8 9 7 7 8 6 5 4 7 7 7 6 8 9 12 13 12 12 11 10 11 12 12 12 11 10 10 11 11 11 10 12 11
7 7 4 5 3 2 2 1 0 4 4 5 2 1 2 2 0 2 1 4 7 9 17 4 2 3 6 4 5 7 10 8 7 3 2 4 1 1 1 5 5 6 6 5 5 5 5 6 6 7 7 7 8 10 10 9 9 9 9 6 6 6 6 6 7 6 9 10 11 11 11 11 9 10 10 11 10 10 11 10 10 10 9 10 10 10
1 5 10 1 4 1 2 1 1 0 0 3 1 4 6 2 4 2 5 3 3 8 9 6 2 2 5 6 12 3 2 5 6 5 3 1 3 3 5 5 4 5 6 5 5 5 6 4 5 5 6 6 6 8 9 9 10 10 10 9 8 8 8 7 7 6 8 10 9 10 11 12 11 9 9 9 8 9 10 10 10 10 10 9 9 8
3 3 2 8 4 1 1 0 1 1 3 5 4 1 3 4 3 1 5 3 1 2 8 3 7 6 6 10 5 4 5 7 6 6 3 1 2 3 4 4 4 5 5 4 5 5 5 4 5 4 4 5 6 6 7 8 8 9 10 10 11 10 8 8 7 7 7 8 8 10 11 11 11 11 12 11 11 11 10 10 10 10 10 9 8 8
1 10 9 1 4 2 2 2 1 1 1 1 1 4 4 3 4 3 2 4 2 1 8 3 7 9 5 9 6 8 8 11 7 4 5 3 3 2 4 4 4 4 4 4 4 5 5 4 4 4 4 5 5 5 6 7 6 7 7 8 11 12 12 10 8 8 6 7 8 9 10 11 12 12 12 11 11 10 9 9 9 8 8 10 9 8
1 6 7 2 4 6 2 0 2 0 0 1 2 0 3 3 3 3 2 3 4 5 6 10 4 6 5 9 5 7 6 12 13 7 5 5 4 4 4 5 4 4 4 4 5 6 6 5 5 4 5 6 6 6 7 7 8 7 7 8 8 11 12 11 8 7 7 6 7 7 10 11 11 11 10 10 9 9 10 11 10 10 10 8 8 9
1 1 8 3 2 6 1 3 4 4 2 1 2 2 0 2 5 1 2 2 4 6 2 10 7 8 4 5 5 8 8 12 9 7 6 5 5 5 5 4 4 4 4 4 5 6 6 5 4 4 5 6 7 7 8 7 7 8 8 8 9 10 11 10 10 8 8 8 7 8 7 7 9 9 10 10 10 10 11 11 10 11 10 11 8 9
2 1 3 8 2 4 4 1 2 1 5 3 2 2 2 1 3 1 1 3 4 3 4 3 9 8 9 5 4 10 13 10 5 8 7 6 6 5 5 5 4 5 5 5 5 6 6 5 4 5 5 5 6 6 6 7 8 8 7 7 8 9 12 12 12 9 9 8 7 7 9 9 9 10 10 11 10 11 11 10 10 11 10 7 10 9
1 3 3 7 11 4 8 3 3 2 2 2 2 3 3 0 8 5 10 1 0 2 3 1 11 13 14 9 5 9 10 5 6 7 11 12 11 5 6 5 4 5 6 6 7 7 5 5 6 6 6 6 7 9 10 10 8 9 9 8 8 8 8 10 12 11 11 8 8 8 9 9 8 9 9 11 11 12 12 11 10 10 9 11 10 9
1 1 1 7 5 10 14 6 1 2 2 3 3 4 2 1 3 2 4 7 3 4 2 5 3 15 13 3 5 7 4 6 10 8 11 13 11 6 6 5 5 5 6 8 11 11 8 7 7 7 7 7 8 9 10 11 11 10 10 9 8 8 11 8 9 9 9 9 9 9 9 8 8 8 9 11 11 13 12 11 11 10 11 11 9 8
2 1 2 7 8 8 9 3 2 2 2 2 2 1 1 3 5 7 7 4 4 5 2 2 4 13 11 2 4 3 7 9 8 7 10 12 8 6 7 8 7 10 12 13 12 9 10 8 8 11 12 12 12 10 11 10 10 10 9 9 8 9 11 10 8 8 8 9 10 9 8 9 9 9 10 11 11 13 13 12 11 10 11 11 9 9
2 1 2 5 7 11 11 6 2 2 1 2 4 6 4 1 2 1 1 1 1 8 9 3 11 12 9 3 7 13 14 13 14 16 11 11 6 7 9 10 11 13 14 14 13 11 11 12 13 12 12 12 11 11 12 12 12 12 13 9 9 10 10 9 8 7 8 7 10 10 9 9 9 10 11 12 11 13 12 12 11 10 11 10 10 9
1 3 1 1 4 8 11 11 11 15 13 11 7 0 0 4 0 7 4 1 3 6 4 4 8 14 14 13 17 17 15 16 18 19 12 6 7 12 14 13 13 12 12 13 14 14 13 10 10 12 13 12 12 11 12 12 13 13 12 13 9 9 11 11 7 7 7 7 8 9 9 10 9 10 12 12 12 13 12 11 11 10 10 11 11 9
0 1 2 5 5 6 10 8 7 2 7 9 18 19 19 3 5 3 1 2 9 6 4 13 14 17 18 18 16 16 16 20 22 18 14 14 16 15 13 12 12 12 13 14 14 13 14 15 16 13 13 13 11 11 11 11 13 13 13 14 13 11 10 11 9 8 7 8 7 8 9 9 10 11 11 11 12 11 10 11 11 11 11 10 11 11
1 1 6 6 7 11 11 9 11 6 9 14 14 18 20 9 4 3 6 13 4 4 12 13 14 12 16 17 18 21 23 24 22 18 19 18 17 16 15 16 20 20 19 19 18 17 15 14 13 13 14 13 13 13 13 12 12 12 13 14 13 13 11 10 10 9 8 7 7 7 10 10 9 10 11 10 10 10 10 10 9 10 10 10 11 12
1 1 6 6 9 11 14 11 13 11 8 11 14 18 17 17 13 10 12 16 10 7 15 18 17 16 16 18 24 23 23 21 23 21 17 17 18 19 22 26 25 22 21 22 21 18 17 17 16 16 15 14 15 16 15 14 13 12 13 14 14 13 13 12 10 11 11 9 8 9 9 9 8 8 9 10 10 10 10 10 10 10 10 10 11 10
1 4 6 6 6 9 14 11 11 9 5 8 13 18 13 11 14 13 15 15 10 12 16 16 16 16 11 17 15 16 18 20 18 18 14 17 17 17 21 22 22 22 22 22 21 20 19 20 19 18 17 16 17 17 16 15 15 15 15 15 15 15 13 12 12 12 12 11 11 10 9 9 8 9 9 9 11 11 11 10 10 10 11 11 11 11
2 6 5 3 4 11 11 7 3 2 4 13 20 16 14 11 11 11 5 6 4 7 11 12 10 8 11 15 16 16 18 19 22 23 13 12 13 19 21 18 17 21 21 21 20 21 21 21 19 18 18 18 19 19 18 17 16 16 16 16 16 16 16 14 14 14 13 13 12 11 9 8 9 8 9 10 10 9 10 11 9 10 11 11 11 12
1 5 3 2 8 13 6 2 6 8 9 12 14 10 9 14 12 10 8 6 6 8 11 13 11 11 13 17 18 17 23 23 21 21 13 12 12 13 15 16 16 22 22 22 22 22 22 21 21 20 19 19 19 18 17 18 18 18 17 17 17 17 17 16 15 15 15 14 13 11 9 9 9 9 10 9 10 10 10 9 10 10 11 11 11 11
1 1 5 4 9 10 13 8 13 13 7 7 5 13 14 11 7 11 7 13 10 4 9 9 8 12 13 16 17 17 23 22 21 20 20 15 15 20 20 18 23 22 22 22 21 21 21 20 19 19 19 17 18 18 18 18 18 18 17 17 17 17 17 17 17 15 15 14 14 13 11 9 10 10 9 10 10 9 9 9 10 10 11 13 11 10
0 0 2 0 1 10 16 13 13 8 11 3 3 15 17 11 12 17 7 6 11 11 5 5 8 12 14 16 16 15 19 18 16 17 17 16 16 18 21 22 23 23 21 21 20 21 20 19 18 19 20 20 19 18 18 18 18 17 16 16 16 17 17 17 17 15 15 15 14 13 11 11 11 11 10 9 9 9 9 9 12 12 11 10 9 12
1 1 3 1 1 8 8 8 10 12 5 3 8 14 16 14 15 17 3 9 9 15 16 17 16 17 16 13 16 13 13 15 18 19 20 18 18 18 21 22 22 22 23 22 23 21 21 21 20 20 20 19 19 19 18 19 18 18 17 16 17 18 18 18 17 16 16 16 15 13 11 11 11 12 11 10 9 9 10 11 11 11 10 10 12 13
2 0 2 3 3 4 6 3 6 11 10 10 9 12 21 21 23 22 10 6 13 13 15 16 14 14 13 14 14 14 17 20 18 16 17 17 16 19 21 20 22 22 23 22 23 22 22 21 21 21 20 18 19 18 18 18 18 18 18 17 17 18 18 18 17 17 16 16 16 14 13 12 12 12 11 10 9 9 10 11 11 12 10 10 9 9
4 0 1 5 2 3 3 5 12 12 10 9 13 13 13 13 15 11 14 3 6 14 14 15 17 19 22 20 21 22 24 22 19 17 15 19 23 24 25 25 24 24 23 23 22 23 22 21 21 21 20 19 19 19 19 18 18 18 18 17 17 17 17 17 17 16 16 16 16 16 16 14 13 12 11 9 9 9 10 11 11 10 8 10 10 7
5 4 3 2 4 2 3 7 7 4 9 6 11 12 11 15 16 16 4 6 12 24 21 21 23 25 24 22 22 24 24 22 22 18 17 19 20 23 23 22 23 22 22 23 22 22 22 21 21 20 20 21 22 22 20 19 18 18 18 17 16 16 17 17 18 16 16 16 17 17 17 16 14 13 12 9 9 10 10 11 9 9 9 11 11 11
2 3 1 3 6 5 4 6 4 6 1 5 13 17 16 19 18 13 6 10 11 25 21 21 24 22 20 19 21 19 19 19 20 18 18 21 21 21 23 22 23 23 22 22 22 23 23 22 22 22 21 21 22 20 19 20 21 19 17 18 19 18 18 18 17 16 16 17 16 17 16 15 16 14 12 11 11 9 10 10 10 10 9 10 10 11
0 1 1 2 5 5 2 2 8 2 0 9 10 13 15 22 15 10 18 12 18 19 18 18 20 20 19 18 18 16 15 19 20 20 20 20 20 21 20 23 24 23 23 22 21 21 23 22 22 20 21 23 23 19 19 18 19 19 16 17 16 16 18 19 16 15 17 16 15 15 15 14 15 14 13 13 11 9 10 8 6 8 10 10 9 9
2 2 5 8 5 7 4 6 3 2 5 10 16 17 16 17 9 16 12 17 17 18 17 17 19 18 17 18 14 15 13 14 20 20 21 21 21 20 20 21 21 21 22 22 22 23 20 19 19 20 22 21 21 20 19 18 18 16 15 17 17 18 18 17 15 16 16 15 15 15 15 14 14 15 12 12 11 11 9 7 8 8 9 10 9 8
7 4 2 1 3 7 4 4 7 3 4 14 22 19 15 15 12 10 10 14 19 19 18 16 19 17 17 16 16 15 17 20 20 20 21 21 21 22 21 21 22 23 21 20 22 21 19 18 20 22 22 21 21 20 18 17 16 16 18 17 18 19 18 15 15 15 15 16 15 15 15 15 15 13 13 11 10 11 9 7 7 8 10 8 9 11
6 4 6 4 3 3 3 8 9 6 4 15 17 9 11 11 9 10 13 14 15 18 17 16 15 17 14 16 18 20 21 20 20 20 19 22 22 22 22 23 23 23 23 22 21 21 20 20 21 21 21 20 20 19 17 15 17 18 18 19 20 18 17 15 14 14 15 15 16 16 16 15 16 15 12 11 10 10 10 6 7 8 8 9 10 10
3 3 4 4 3 8 8 5 2 4 10 12 14 11 10 9 11 11 12 15 13 13 15 13 13 12 16 17 20 20 20 20 20 20 22 22 22 21 21 22 23 23 22 21 21 21 21 20 20 21 22 21 19 17 17 17 18 17 18 20 18 16 16 15 14 14 15 15 15 16 15 16 16 15 13 13 11 9 9 7 8 8 8 9 9 9
5 3 3 8 3 4 4 7 7 10 6 10 13 11 12 15 12 14 13 14 15 13 13 12 14 17 18 19 20 19 20 18 22 22 21 22 21 19 21 22 24 23 22 22 22 22 20 21 23 23 24 21 18 19 18 17 16 18 19 19 16 16 16 16 15 15 15 15 15 15 15 15 15 15 14 12 10 8 7 7 8 8 7 8 8 9
2 6 4 1 3 9 8 1 13 13 16 19 15 10 16 17 16 15 17 16 14 15 13 14 17 18 20 18 18 18 19 21 21 22 23 21 21 20 21 22 21 22 22 22 22 22 21 21 22 24 24 20 19 19 18 17 15 17 17 17 16 15 15 14 15 16 17 16 15 16 16 17 16 15 13 13 7 8 7 8 8 8 8 8 8 9
2 8 5 3 8 9 4 11 14 16 19 19 16 13 11 13 16 15 14 14 14 15 15 15 16 17 17 17 17 20 23 21 21 22 21 19 21 21 21 20 21 22 22 23 24 23 20 20 21 23 23 21 19 18 18 18 16 15 15 15 15 15 14 15 16 17 16 15 15 15 15 15 13 13 12 9 5 4 5 5 6 7 8 8 9 9
9 11 4 10 14 9 12 12 12 17 19 16 14 16 17 18 17 14 15 15 17 17 18 19 18 16 16 17 18 20 21 20 21 21 20 18 19 19 19 19 22 22 22 23 23 22 20 20 21 22 23 22 18 17 17 17 17 16 16 15 14 14 15 15 15 15 15 16 14 13 14 13 15 15 11 8 5 4 4 4 6 8 9 10 10 10
5 5 6 12 10 10 10 11 17 20 17 17 20 16 17 18 20 20 19 19 18 21 22 20 16 16 17 19 20 19 20 21 21 21 20 19 21 19 20 22 22 22 22 23 23 21 20 20 20 22 23 22 18 17 17 17 17 16 17 16 13 13 15 16 17 17 15 13 12 13 13 12 12 11 11 6 3 4 4 7 8 8 6 6 7 9
5 10 9 10 11 12 13 19 19 19 18 19 17 18 19 19 19 20 18 18 21 22 22 22 22 19 18 18 19 20 22 21 22 21 22 21 19 21 23 23 22 23 22 21 19 20 21 20 20 22 22 21 19 17 16 17 16 16 16 15 13 13 14 16 16 15 13 12 12 12 12 12 11 11 8 6 3 3 3 3 6 5 6 6 10 13
8 10 9 8 10 13 16 17 16 16 17 15 20 20 19 18 18 18 19 21 23 23 22 22 23 25 24 22 19 20 22 23 23 22 23 20 21 20 21 23 22 21 21 21 21 21 20 21 20 20 22 21 16 16 16 16 16 16 16 15 13 13 14 15 14 13 11 12 11 13 13 12 11 10 7 4 2 3 3 1 2 8 9 7 9 13
Wind_Direction
98 76 72 300 254 232 264 162 190 221 210 275 312 325 279 279 285 277 275 280 0 334 252 262 276 285 292 294 296 297 322 302 289 292 290 288 290 319 299 302 326 331 284 282 274 248 222 62 63 82 119 129 122 151 164 174 190 187 186 176 197 188 176 175 177 184 179 186 188 193 196 203 196 200 199 201 202 199 200 195 192 189 184 180 177 179
67 61 325 228 230 239 267 262 356 355 346 262 295 324 302 298 289 268 299 12 339 35 283 302 304 296 290 295 297 304 326 314 323 320 332 353 20 25 32 26 13 329 7 24 30 17 29 31 32 30 40 99 146 197 171 193 200 197 185 193 198 176 189 192 189 188 190 195 194 189 197 191 192 193 197 205 203 205 201 196 193 190 184 181 181 181
41 66 282 284 336 345 318 300 291 218 305 348 333 296 335 293 247 291 352 11 8 360 289 318 322 303 298 304 300 308 304 284 313 295 349 53 45 44 42 41 35 27 29 28 33 39 31 31 22 25 306 268 233 211 206 210 200 205 202 206 196 196 195 201 195 187 200 199 199 192 190 189 199 209 204 201 203 199 199 198 195 188 184 183 186 181
22 308 285 318 17 4 337 351 342 348 28 337 347 352 307 296 11 321 290 360 333 258 291 319 312 294 304 304 312 318 3 351 20 49 59 60 61 56 56 64 51 41 39 40 38 24 14 27 310 284 279 248 252 252 254 236 219 213 214 209 203 206 205 203 204 202 202 194 190 198 180 193 192 196 200 204 199 202 199 205 196 192 185 186 187 184
186 268 298 6 349 35 333 342 30 41 332 316 275 255 295 334 316 207 304 327 280 304 180 325 334 317 340 356 347 348 9 36 21 52 52 46 54 61 49 46 56 59 47 41 36 21 9 330 248 234 243 255 243 238 238 232 224 215 217 216 208 207 207 208 204 200 175 162 173 182 192 185 203 210 194 199 214 201 201 202 197 201 187 186 187 185
6 286 40 10 357 29 14 348 359 22 342 324 275 221 258 264 295 310 322 343 359 343 58 38 350 318 311 327 334 323 17 28 2 49 40 45 40 39 41 29 24 37 51 49 26 359 345 334 320 304 252 236 236 239 237 227 226 222 226 220 216 211 211 211 205 189 170 184 181 176 181 192 196 209 192 202 203 194 197 203 199 192 188 187 188 188
167 324 34 327 3 347 24 22 315 74 353 4 296 177 267 281 307 334 340 17 351 345 291 70 130 268 328 312 298 334 34 17 6 29 4 29 43 47 46 34 29 22 12 5 7 349 352 337 324 313 293 240 232 240 241 228 224 221 225 220 212 212 213 208 199 183 180 189 194 197 199 198 198 204 216 209 199 193 197 188 189 192 190 191 188 191
32 352 8 12 28 29 25 11 318 43 27 306 242 344 307 316 316 315 57 140 236 252 285 58 149 186 303 292 260 323 61 14 11 358 351 333 10 47 37 29 24 11 7 10 1 353 339 328 316 310 295 280 268 277 271 240 234 223 225 215 212 211 212 208 190 187 192 195 198 202 207 208 210 212 211 198 202 202 194 190 194 188 195 195 193 190
56 343 31 4 33 35 15 266 276 81 338 256 269 75 302 286 290 259 221 233 234 47 323 335 7 11 259 268 306 28 40 354 339 311 303 313 314 340 13 356 358 358 356 355 358 351 341 330 324 324 328 324 329 327 313 270 239 231 231 220 211 210 214 213 193 193 199 201 199 201 203 214 220 220 221 202 212 210 206 207 202 197 194 194 196 192
350 113 262 103 70 352 266 268 261 125 350 275 275 288 268 305 193 187 182 170 331 65 310 287 285 291 282 287 325 329 71 341 267 277 303 309 320 329 334 325 338 359 354 332 336 341 344 335 328 330 331 342 330 323 315 300 277 242 220 220 212 227 221 218 203 200 203 204 198 201 207 214 216 211 215 198 212 215 205 211 206 200 193 193 193 194
255 274 187 79 102 229 267 280 236 224 228 288 341 343 331 29 48 13 85 80 50 20 260 236 275 121 312 286 280 27 256 229 262 284 281 299 319 320 311 321 344 331 320 328 324 337 331 332 337 343 344 325 341 338 335 330 311 283 224 233 225 234 236 223 215 203 206 205 203 209 211 213 214 208 202 204 214 204 201 207 201 195 195 190 193 189
350 348 36 284 193 302 167 318 343 356 73 24 8 343 349 352 8 24 339 43 57 299 257 246 202 168 256 297 297 247 286 249 197 243 271 300 272 273 297 312 336 1 352 347 352 343 343 349 345 349 346 340 336 351 354 339 327 303 269 254 250 265 250 239 227 212 214 208 212 217 215 216 215 205 204 205 205 196 197 197 196 194 187 194 191 192
16 0 283 305 233 62 325 14 317 11 11 20 8 15 45 312 22 340 12 5 330 246 275 269 12 350 238 216 265 286 240 246 235 205 236 252 258 279 289 344 357 348 354 353 340 336 348 348 342 350 351 350 353 351 350 343 332 312 287 263 262 273 266 254 235 218 217 213 216 217 218 220 214 211 211 211 211 204 201 196 198 192 199 190 193 196
288 290 330 310 20 299 70 31 331 2 338 3 31 38 58 9 20 327 285 249 308 293 257 308 132 221 260 291 247 233 241 219 220 230 223 225 245 162 19 5 7 357 2 347 331 341 345 344 347 3 359 352 348 350 351 346 344 328 301 287 272 272 278 275 250 228 222 220 220 218 220 220 214 215 213 215 215 212 210 202 203 200 200 198 202 196
21 348 314 27 349 0 55 118 208 223 305 271 206 123 168 130 132 305 288 334 290 266 301 324 92 235 332 249 264 248 225 230 237 247 284 287 272 186 352 14 8 359 341 328 337 344 340 343 0 4 353 350 348 348 349 348 346 346 336 312 295 293 288 285 269 240 228 229 225 222 222 221 216 219 218 220 218 215 211 210 208 208 203 205 207 202
307 243 258 215 247 56 311 251 127 16 357 258 170 95 55 269 143 192 207 249 279 311 318 322 246 223 286 256 280 340 302 293 283 290 298 295 356 11 14 357 339 338 329 321 342 337 332 330 354 357 350 345 345 343 345 345 344 344 338 325 312 302 303 303 296 261 235 233 226 221 221 221 219 219 222 226 222 222 215 212 209 210 207 209 204 204
12 314 270 327 50 175 202 23 280 153 28 294 48 1 271 189 142 299 326 250 312 4 259 216 320 307 300 309 290 348 320 310 348 339 339 335 317 8 354 324 329 320 310 329 339 317 316 324 342 336 334 336 337 342 340 334 335 335 332 331 324 315 305 301 300 284 256 242 230 225 221 221 219 218 219 221 220 219 216 214 212 211 211 207 203 199
92 277 300 76 324 276 200 168 233 275 164 51 11 263 295 113 128 124 247 324 27 100 277 356 271 304 29 300 310 336 323 308 314 308 287 287 293 339 310 301 300 311 309 341 316 305 303 300 313 327 333 331 327 323 326 326 328 328 328 325 327 325 317 307 304 297 279 253 236 230 224 222 220 220 223 223 224 219 219 220 217 215 212 210 203 195
96 330 296 256 231 267 353 44 355 303 20 195 230 203 46 330 355 313 87 339 331 311 283 292 293 273 208 257 318 303 301 299 306 315 304 291 305 301 295 298 295 303 350 348 321 314 311 305 310 324 331 328 326 324 321 320 324 327 328 327 326 321 314 301 299 294 288 262 246 234 226 219 220 222 224 224 222 218 220 218 216 216 219 211 201 197
6 199 296 301 37 303 5 65 322 289 322 344 350 358 276 110 207 138 214 190 130 257 7 285 332 281 222 221 221 268 284 289 292 306 290 269 278 289 292 295 295 320 333 319 307 303 295 287 295 317 333 332 327 325 321 317 318 321 320 325 324 324 323 317 306 301 296 280 257 247 234 229 221 220 222 219 216 220 220 220 215 219 218 214 202 203
288 127 261 278 289 6 357 324 251 273 314 327 27 326 342 257 221 166 284 155 183 207 209 266 308 274 264 205 237 282 288 285 280 284 309 310 281 279 280 281 306 334 341 315 301 298 294 292 316 331 338 333 326 321 321 325 323 315 316 317 320 327 326 324 314 305 293 290 271 251 239 230 220 220 217 218 216 221 221 219 216 219 223 211 212 202
22 1 221 309 346 355 269 214 221 189 171 203 188 231 202 262 316 346 288 23 35 119 246 249 269 281 271 276 266 271 277 301 300 325 326 328 316 283 290 298 312 344 335 318 304 297 312 342 339 337 342 348 346 337 336 328 325 323 321 315 312 319 320 321 320 314 304 298 281 262 250 239 229 223 216 219 217 219 218 216 213 216 219 220 217 205
131 199 103 296 239 271 271 296 186 138 175 203 150 266 184 161 118 140 254 279 340 245 199 210 259 268 265 284 260 261 286 315 324 328 321 320 311 295 301 308 326 353 337 322 324 336 2 355 346 335 345 347 343 335 334 333 330 324 318 315 313 314 311 311 305 304 299 296 291 273 258 250 237 225 220 220 220 222 218 216 210 205 213 217 217 214
31 86 341 266 282 274 286 328 137 97 163 327 291 238 49 257 182 190 202 210 266 293 275 284 206 266 286 237 284 322 329 321 308 320 311 314 308 307 321 334 356 358 348 346 1 15 1 353 344 353 355 352 351 344 336 328 322 318 317 312 309 308 303 304 302 303 303 299 291 279 270 255 245 234 228 225 224 226 221 218 213 203 210 210 206 209
38 286 98 324 349 326 333 351 26 205 112 206 264 251 210 169 78 194 143 59 269 246 224 163 259 272 279 10 322 321 325 323 324 324 331 322 315 330 349 1 3 3 11 14 14 7 0 356 356 351 347 347 343 340 336 333 327 323 320 318 313 307 300 292 294 297 297 294 291 287 273 262 247 242 236 233 231 229 224 220 214 210 210 205 207 201
150 240 84 23 336 333 323 329 320 327 325 315 292 132 9 139 202 0 286 299 207 270 162 207 250 261 289 315 312 313 317 320 327 325 337 324 343 8 8 8 12 14 11 10 6 2 359 348 345 349 347 344 341 335 332 327 324 319 317 319 315 303 305 299 287 287 293 294 291 287 277 265 256 246 242 240 237 233 226 221 215 209 208 204 210 198
196 296 154 164 160 216 249 245 258 272 315 309 291 300 289 227 257 209 213 158 238 260 271 253 256 285 294 300 308 310 328 329 328 338 345 4 13 10 10 10 9 8 6 7 4 356 353 351 346 343 339 335 330 328 324 323 318 318 317 315 316 311 302 297 290 288 291 288 284 285 277 268 259 250 248 244 241 238 232 224 217 211 209 203 205 202
72 323 248 207 222 235 248 261 272 281 265 277 286 284 288 301 200 206 207 249 217 41 274 271 277 282 291 304 321 337 346 350 350 1 9 12 10 5 2 7 5 2 6 2 357 352 345 337 333 334 329 326 323 318 316 314 312 310 313 313 313 311 307 301 294 287 284 283 284 277 274 268 260 255 252 249 244 241 236 228 220 214 210 202 204 203
133 251 277 150 250 253 263 265 273 280 259 251 265 272 286 299 304 264 252 251 254 236 260 272 286 293 302 352 358 4 6 360 357 360 14 9 8 8 6 1 354 351 352 347 343 340 334 330 326 322 321 320 318 317 316 315 314 313 313 314 312 309 309 306 299 292 289 288 283 276 272 271 265 256 255 251 248 242 237 229 222 215 210 206 206 204
65 254 247 201 258 265 271 266 266 260 275 285 273 276 285 289 281 273 270 269 243 238 254 273 281 289 11 4 352 355 358 357 352 354 9 6 6 1 357 351 349 342 339 336 332 328 323 320 320 319 317 317 319 320 320 318 320 321 320 316 312 309 307 311 302 296 289 285 280 276 275 273 267 262 257 253 248 243 235 229 220 214 212 210 206 204
103 280 3 332 333 292 285 268 270 233 264 292 286 296 307 295 291 280 263 283 305 266 272 289 305 345 1 354 346 343 349 352 354 358 2 343 352 348 348 345 336 333 328 324 322 319 318 317 314 314 317 321 323 322 321 320 319 319 317 315 313 311 311 311 306 298 291 284 282 276 273 276 271 266 260 252 252 246 237 229 219 214 213 210 205 203
58 266 23 39 348 302 305 335 304 305 296 273 286 299 313 328 326 327 331 338 20 348 11 13 7 350 345 347 336 347 353 352 350 344 336 331 334 343 342 335 327 326 322 319 318 316 315 314 315 317 319 319 319 319 319 318 319 318 315 314 311 310 310 309 306 300 294 291 287 278 266 265 267 266 262 258 252 244 237 229 219 215 212 208 204 201
172 19 345 348 332 286 296 334 323 318 327 344 356 342 338 313 329 337 8 50 48 23 33 15 344 335 335 342 340 354 349 339 339 341 328 319 330 334 324 317 319 317 315 314 312 311 310 311 313 314 314 315 315 315 313 312 313 310 311 310 308 308 308 307 305 300 295 293 291 284 277 270 268 266 261 256 252 243 235 225 221 217 211 212 205 197
64 120 267 156 264 279 305 330 322 343 341 290 302 20 0 353 7 349 6 56 40 39 29 331 330 335 340 348 344 342 340 332 322 311 305 308 320 320 321 320 316 314 311 309 308 308 310 312 313 313 313 310 309 307 306 306 304 302 303 302 302 302 303 303 301 299 298 298 294 288 280 275 273 272 264 258 251 242 234 222 222 219 213 211 198 201
328 266 253 172 243 282 313 351 344 327 265 253 16 35 14 1 1 345 44 27 32 20 10 358 350 348 341 341 332 324 321 315 315 310 309 312 316 318 318 317 314 314 312 311 312 312 312 312 310 309 308 307 307 306 304 304 304 304 303 303 303 304 303 301 301 300 300 298 295 291 283 274 274 272 269 262 251 243 237 229 228 220 210 207 202 200
258 123 269 305 207 319 337 24 340 285 311 18 2 22 6 2 355 341 336 74 19 21 3 353 342 335 332 328 328 323 319 316 308 303 305 313 319 320 319 317 316 316 315 316 314 313 312 311 309 307 305 303 302 301 300 300 303 303 303 302 301 302 301 300 301 301 301 299 296 293 287 280 276 271 266 260 251 243 240 234 227 221 210 207 204 203
159 179 107 282 165 229 242 277 264 297 316 35 2 18 356 346 320 312 299 287 54 9 10 350 340 339 337 334 331 328 326 320 316 315 324 328 331 329 326 321 320 316 314 312 311 309 308 307 306 305 303 302 300 299 299 300 300 300 300 300 300 299 298 298 298 300 302 303 302 299 293 287 277 269 261 247 242 240 238 234 230 222 203 199 170 170
174 172 240 86 282 124 294 303 309 319 297 353 325 333 337 332 313 302 286 271 20 0 360 348 341 334 331 327 326 324 322 319 322 322 329 327 322 317 315 313 313 312 311 310 309 308 307 306 305 304 304 302 301 299 300 300 300 301 299 299 301 302 303 302 301 304 308 308 308 305 303 298 287 272 257 242 237 237 237 232 225 215 195 201 199 202
198 186 160 160 270 12 312 282 269 290 226 15 345 343 339 332 315 297 294 293 12 353 346 343 330 322 318 317 318 322 323 318 316 317 324 321 318 316 314 313 312 311 310 310 311 310 309 308 307 307 306 304 299 300 305 306 304 302 305 307 306 305 303 299 298 304 306 306 306 304 302 299 291 276 261 250 242 232 237 226 216 207 192 200 200 204
26 243 86 286 266 223 201 285 281 241 322 325 317 333 341 333 320 359 332 327 348 335 330 323 317 313 312 316 317 316 323 313 317 316 316 312 312 310 310 310 311 312 311 311 310 310 309 308 308 311 310 305 301 302 301 299 299 299 303 303 300 298 296 296 300 308 304 302 301 299 297 292 289 281 265 256 252 246 238 227 204 189 191 196 194 194
304 295 146 228 256 270 212 255 293 319 15 338 353 346 354 333 355 15 330 318 320 314 314 312 307 310 312 313 317 312 310 299 299 302 306 308 308 307 307 307 308 310 310 310 309 309 307 306 306 305 303 300 299 300 301 302 300 302 302 297 296 296 296 298 301 301 296 299 298 296 293 292 290 286 270 257 255 254 246 211 204 191 187 190 189 186
308 292 279 76 301 280 247 242 252 188 175 1 1 350 353 2 19 330 304 301 303 306 306 304 304 308 312 308 312 306 304 303 300 302 306 310 309 306 307 310 311 310 309 308 307 307 307 307 305 304 302 301 300 301 302 302 301 302 304 302 297 297 299 298 295 296 298 299 296 294 293 292 290 283 276 264 255 257 246 220 200 188 189 185 184 187
311 333 289 300 271 326 351 304 317 318 348 15 334 336 24 8 321 295 296 289 293 298 300 304 308 306 311 310 307 304 303 303 303 305 307 309 308 309 311 314 313 312 312 312 312 310 310 308 306 304 302 302 302 304 302 301 301 301 301 300 299 302 300 294 295 297 298 297 296 296 294 293 290 287 284 271 253 245 244 211 191 189 180 180 182 184
336 338 336 325 5 321 329 349 329 323 330 356 354 339 337 331 300 298 298 302 302 302 307 308 303 305 312 308 309 306 305 303 306 311 310 307 307 307 309 311 312 312 311 310 308 309 310 307 305 304 303 303 304 306 306 304 301 300 300 298 301 304 302 299 301 299 299 298 296 296 296 295 293 289 281 274 266 241 233 205 191 183 182 180 178 180
29 6 325 293 340 59 285 281 314 321 313 339 342 321 318 318 313 307 305 302 309 311 312 306 311 313 313 310 308 307 305 307 308 307 306 305 306 307 309 310 312 311 310 310 310 309 310 310 308 305 303 304 308 306 304 301 297 299 299 300 305 304 303 304 303 301 300 298 298 297 297 297 295 291 287 278 260 237 221 198 178 182 181 176 182 184
67 356 301 92 336 311 270 212 331 337 343 337 328 322 321 318 316 318 319 317 313 310 312 312 312 310 310 310 309 307 305 306 306 306 305 305 307 306 305 306 308 309 308 308 308 310 311 310 307 306 306 310 307 305 303 301 299 299 298 300 301 301 300 301 301 302 301 300 300 300 300 300 298 295 289 284 251 226 209 191 183 182 176 181 185 186
340 6 5 56 321 348 321 353 335 332 330 323 314 307 295 302 311 313 308 307 303 305 304 301 303 302 302 302 301 301 302 303 301 301 301 303 306 306 305 305 305 308 310 311 310 311 313 312 309 310 311 308 306 306 305 303 301 298 298 298 300 301 300 301 303 303 302 301 303 302 302 301 301 300 297 286 255 217 199 181 176 175 174 180 182 187
345 355 4 352 337 344 311 322 327 323 317 312 315 320 323 324 319 318 316 311 310 308 306 306 306 302 303 300 301 300 298 300 300 300 302 303 306 306 305 306 308 310 311 312 311 314 313 309 310 311 311 308 309 306 306 304 302 302 301 300 300 301 303 303 304 301 300 304 304 303 305 304 303 303 303 288 239 207 189 181 178 180 184 183 186 183
274 314 6 331 314 303 291 322 330 316 305 318 320 320 323 320 319 317 316 313 309 308 306 303 300 299 302 301 302 302 301 301 303 303 302 305 309 308 308 310 309 310 311 314 315 315 309 308 309 311 312 310 311 308 305 303 303 303 301 302 303 302 305 305 306 303 306 304 305 307 307 307 309 308 309 303 253 240 213 190 186 196 197 201 188 185
351 12 341 333 327 332 333 329 335 330 327 325 325 326 321 317 312 309 309 309 310 309 311 311 309 307 303 301 306 308 305 305 305 307 305 307 308 310 312 312 311 311 312 313 312 310 308 308 310 312 312 310 309 307 306 305 304 303 302 304 303 305 305 307 307 306 308 309 312 308 309 310 310 311 314 302 262 246 266 260 215 199 185 184 195 199
9 350 347 341 329 314 320 322 327 314 304 309 315 318 314 309 310 311 313 311 309 309 311 311 312 313 313 311 309 306 305 305 305 306 307 310 311 310 310 311 313 314 312 312 311 311 310 310 311 311 312 309 306 304 306 306 305 305 304 305 304 305 305 305 307 305 307 312 313 311 311 310 312 315 320 306 269 244 246 292 269 218 206 183 193 197